カタログに戻る

USA 382

運用中軍事VLEO
NORAD 60165·PAYLOAD·🇺🇸 United States

打ち上げ Jun 29, 2024 から Vandenberg Space Force Base

Loading…

次のパス (今後24時間)

TLE

古いSource: Mike McCants

元期: Jul 23, 2025, 21:50 UTC

1 60165U 24121H   25204.91008624 0.00000000  00000-0  00000-0 0    04
2 60165  69.9901 132.0268 0003000  14.4240 345.5759 14.96713838    02

AllMySatでUSA 382をリアルタイム追跡

Download on the App Store